Forestdale, MA

2:39 PM EDT on October 01, 2016 (GMT -0400)
Cape Cod Coast Guard Air Station

Weather History for KFMH - March, 2014

Change the Weather History Date:

Wednesday, March 26, 2014

  Actual Average Record
Temperature  
Mean Temperature 28 °F -  
Max Temperature 33 °F 46 °F 62 °F (2003)
Min Temperature 24 °F 31 °F 23 °F (2009)
Degree Days  
Heating Degree Days 36    
Moisture  
Dew Point 16 °F    
Average Humidity 61    
Maximum Humidity 94    
Minimum Humidity 23    
Precipitation  
Precipitation 0.00 in - - ()
Sea Level Pressure  
Sea Level Pressure 29.63 in    
Wind  
Wind Speed 22 mph (NNW)    
Max Wind Speed 51 mph    
Max Gust Speed 54 mph    
Visibility 6 miles    
Events Rain , Snow    
Averages and records for this station are not official NWS values.
T = Trace of Precipitation, MM = Missing Value Source: NWS Daily Summary

Daily Weather History Graph

Daily Weather History Graph

Search for Another Location

Airport or City:

Trip Planner

Search our weather history database for the weather conditions in past years. The results will help you decide how hot, cold, wet, or windy it might be!

Date:

Astronomy

Mar. 26, 2014 Rise Set
Actual Time 6:35 AM EDT 7:00 PM EDT
Civil Twilight 6:07 AM EDT 7:28 PM EDT
Nautical Twilight 5:34 AM EDT 8:01 PM EDT
Astronomical Twilight 5:01 AM EDT 8:35 PM EDT
Moon 3:45 AM EDT (3/26) 2:32 PM EDT (3/26)
Length of Visible Light 13h 21m
Length of Day
12h 25m
Waning Crescent, 22% of the Moon is Illuminated
Mar 26
Waning Crescent
Mar 30
New
Apr 7
First Quarter
Apr 15
Full
Apr 22
Last Quarter

Hourly Weather History & Observations

Time (EDT) Temp. Windchill Dew Point Humidity Pressure Visibility Wind Dir Wind Speed Gust Speed Precip Events Conditions
12:15 AM 32.0 °F 21.6 °F 19.4 °F 60% 29.83 in 10.0 mi NE 15.0 mph 20.7 mph N/A   Overcast
12:35 AM 32.0 °F 21.6 °F 19.4 °F 60% 29.81 in 10.0 mi NE 15.0 mph - N/A   Overcast
12:55 AM 32.0 °F 22.1 °F 19.4 °F 60% 29.80 in 10.0 mi NE 13.8 mph 23.0 mph N/A   Overcast
1:15 AM 32.0 °F 21.6 °F 21.2 °F 64% 29.78 in 10.0 mi NE 15.0 mph 21.9 mph N/A   Overcast
1:35 AM 33.8 °F 23.2 °F 21.2 °F 60% 29.78 in 10.0 mi NE 17.3 mph 29.9 mph N/A   Overcast
1:55 AM 33.8 °F 22.5 °F 21.2 °F 60% 29.77 in 10.0 mi NE 19.6 mph 25.3 mph N/A   Overcast
2:15 AM 33.8 °F 22.5 °F 21.2 °F 60% 29.76 in 10.0 mi NE 19.6 mph 32.2 mph N/A   Overcast
2:35 AM 32.0 °F 19.2 °F 23.0 °F 69% 29.75 in 6.0 mi NE 23.0 mph 33.4 mph N/A   Overcast
2:55 AM 30.2 °F 17.1 °F 26.6 °F 86% 29.74 in 2.0 mi NE 21.9 mph 32.2 mph N/A Snow Light Snow
3:15 AM 30.2 °F 16.8 °F 26.6 °F 86% 29.70 in 1.8 mi NNE 23.0 mph 32.2 mph N/A Snow Light Snow
3:35 AM 30.2 °F 16.8 °F 24.8 °F 80% 29.69 in 3.0 mi NNE 23.0 mph 32.2 mph N/A   Overcast
3:55 AM 30.2 °F 20.2 °F 23.0 °F 75% 29.66 in 7.0 mi NNE 12.7 mph 32.2 mph N/A Rain Light Freezing Rain
4:15 AM 32.0 °F 20.5 °F 21.2 °F 64% 29.62 in 9.0 mi NNE 18.4 mph 28.8 mph N/A   Overcast
4:35 AM 30.2 °F 17.1 °F 23.0 °F 75% 29.62 in 3.0 mi NNE 21.9 mph 39.1 mph N/A Rain Light Freezing Rain
4:55 AM 30.2 °F 17.4 °F 24.8 °F 80% 29.59 in 2.0 mi NNE 20.7 mph 36.8 mph N/A Snow Light Snow
5:15 AM 30.2 °F 18.1 °F 26.6 °F 86% 29.58 in 1.5 mi NNE 18.4 mph 35.7 mph N/A   Overcast
5:35 AM 28.4 °F 14.4 °F 26.6 °F 93% 29.57 in 1.0 mi NNE 23.0 mph 41.4 mph N/A Snow Light Snow
5:55 AM 28.4 °F 13.5 °F 26.6 °F 93% 29.56 in 0.8 mi North 26.5 mph 38.0 mph N/A Snow Light Snow
6:15 AM 28.4 °F 14.4 °F 26.6 °F 93% 29.54 in 0.5 mi North 23.0 mph 40.3 mph N/A Snow Light Snow
6:35 AM 28.4 °F 13.8 °F 26.6 °F 93% 29.52 in 0.8 mi North 25.3 mph 36.8 mph N/A Snow Light Snow
6:55 AM 28.4 °F 12.7 °F 26.6 °F 93% 29.50 in 0.2 mi North 29.9 mph 43.7 mph N/A Snow Snow
7:15 AM 28.4 °F 12.7 °F 26.6 °F 93% 29.50 in 0.2 mi North 29.9 mph 47.2 mph N/A Snow Snow
7:35 AM 28.4 °F 13.5 °F 26.6 °F 93% 29.49 in 0.2 mi North 26.5 mph 46.0 mph N/A Snow Light Snow
7:55 AM 28.4 °F 13.0 °F 26.6 °F 93% 29.48 in 0.2 mi North 28.8 mph 46.0 mph N/A Snow Snow
8:15 AM 28.4 °F 13.3 °F 26.6 °F 93% 29.48 in 0.2 mi North 27.6 mph 46.0 mph N/A Snow Snow
8:35 AM 26.6 °F 10.8 °F 24.8 °F 93% 29.49 in 0.2 mi North 27.6 mph 50.6 mph N/A Snow Snow
8:55 AM 26.6 °F 10.8 °F 24.8 °F 93% 29.49 in 0.2 mi North 27.6 mph 43.7 mph N/A Snow Snow
9:15 AM 26.6 °F 10.6 °F 24.8 °F 93% 29.48 in 0.2 mi North 28.8 mph 54.1 mph N/A Snow Snow
9:35 AM 26.6 °F 10.8 °F 24.8 °F 93% 29.48 in 0.2 mi North 27.6 mph 43.7 mph N/A Snow Snow
9:55 AM 24.8 °F 6.8 °F 23.0 °F 93% 29.47 in 0.2 mi North 34.5 mph 51.8 mph N/A Snow Snow
10:15 AM 24.8 °F 8.1 °F 23.0 °F 93% 29.46 in 0.2 mi North 28.8 mph 44.9 mph N/A Snow Snow
10:35 AM 24.8 °F 8.1 °F 23.0 °F 93% 29.46 in 0.2 mi North 28.8 mph 47.2 mph N/A Snow Snow
10:55 AM 24.8 °F 9.0 °F 23.0 °F 93% 29.46 in 0.5 mi NNW 25.3 mph 42.6 mph N/A Snow Light Snow
11:15 AM 24.8 °F 10.3 °F 21.2 °F 86% 29.48 in 0.5 mi NNW 20.7 mph 54.1 mph N/A Snow Light Snow
11:35 AM 26.6 °F 10.3 °F 21.2 °F 80% 29.48 in 0.8 mi NNW 29.9 mph 51.8 mph N/A Snow Light Snow
11:55 AM 26.6 °F 11.1 °F 19.4 °F 74% 29.47 in 1.2 mi NNW 26.5 mph 41.4 mph N/A Snow Light Snow
12:15 PM 26.6 °F 10.6 °F 19.4 °F 74% 29.48 in 2.0 mi NNW 28.8 mph 39.1 mph N/A Snow Light Snow
12:35 PM 28.4 °F 13.5 °F 17.6 °F 64% 29.47 in 1.5 mi NNW 26.5 mph 50.6 mph N/A Snow Light Snow
12:55 PM 28.4 °F 14.7 °F 17.6 °F 64% 29.48 in 3.0 mi NNW 21.9 mph 46.0 mph N/A Snow Light Snow
1:15 PM 28.4 °F 13.8 °F 17.6 °F 64% 29.48 in 3.0 mi NNW 25.3 mph 40.3 mph N/A Snow Light Snow
1:35 PM 30.2 °F 16.5 °F 15.8 °F 55% 29.47 in 6.0 mi NNW 24.2 mph 35.7 mph N/A Rain Light Freezing Rain
1:55 PM 30.2 °F 14.9 °F 14.0 °F 51% 29.47 in 2.5 mi NNW 31.1 mph 44.9 mph N/A   Light Freezing Rain
2:15 PM 30.2 °F 15.2 °F 14.0 °F 51% 29.49 in 5.0 mi NNW 29.9 mph 43.7 mph N/A   Light Freezing Rain
2:35 PM 32.0 °F 18.4 °F 14.0 °F 48% 29.49 in 6.0 mi NNW 26.5 mph 38.0 mph N/A   Haze
2:55 PM 32.0 °F 20.1 °F 14.0 °F 48% 29.51 in 8.0 mi NNW 19.6 mph 36.8 mph N/A Snow Light Snow
3:15 PM 32.0 °F 19.5 °F 14.0 °F 48% 29.52 in 6.0 mi NNW 21.9 mph 41.4 mph N/A   Light Drizzle
3:35 PM 32.0 °F 18.9 °F 12.2 °F 44% 29.53 in 8.0 mi NNW 24.2 mph 40.3 mph N/A Snow Light Snow
3:55 PM 32.0 °F 17.9 °F 12.2 °F 44% 29.54 in 6.0 mi NW 28.8 mph 41.4 mph N/A Snow Light Snow
4:15 PM 32.0 °F 18.6 °F 10.4 °F 41% 29.56 in 10.0 mi NW 25.3 mph 36.8 mph N/A   Clear
4:35 PM 32.0 °F 18.9 °F 8.6 °F 38% 29.58 in 7.0 mi NNW 24.2 mph 46.0 mph N/A   Light Drizzle
4:55 PM 32.0 °F 18.6 °F 8.6 °F 38% 29.60 in 9.0 mi NW 25.3 mph 42.6 mph N/A   Clear
5:15 PM 32.0 °F 19.8 °F 6.8 °F 35% 29.61 in 6.0 mi NW 20.7 mph 44.9 mph N/A   Haze
5:35 PM 33.8 °F 21.9 °F 5.0 °F 30% 29.63 in 10.0 mi NW 21.9 mph 34.5 mph N/A   Overcast
5:55 PM 33.8 °F 22.2 °F 5.0 °F 30% 29.65 in 10.0 mi NW 20.7 mph 31.1 mph N/A   Overcast
6:15 PM 33.8 °F 20.5 °F 3.2 °F 28% 29.66 in 10.0 mi NW 27.6 mph 39.1 mph N/A   Overcast
6:35 PM 32.0 °F 18.6 °F 3.2 °F 30% 29.68 in 9.0 mi NW 25.3 mph 43.7 mph N/A   Overcast
6:55 PM 32.0 °F 19.5 °F 5.0 °F 32% 29.70 in 10.0 mi NW 21.9 mph 31.1 mph N/A   Overcast
7:15 PM 32.0 °F 21.2 °F 6.8 °F 35% 29.73 in 10.0 mi NW 16.1 mph 31.1 mph N/A   Mostly Cloudy
7:35 PM 30.2 °F 17.4 °F 5.0 °F 34% 29.75 in 10.0 mi NW 20.7 mph 32.2 mph N/A   Overcast
7:55 PM 30.2 °F 17.1 °F 3.2 °F 32% 29.77 in 10.0 mi NW 21.9 mph 36.8 mph N/A   Overcast
8:15 PM 30.2 °F 15.4 °F 3.2 °F 32% 29.79 in 10.0 mi NW 28.8 mph 39.1 mph N/A   Overcast
8:35 PM 30.2 °F 17.1 °F 1.4 °F 29% 29.81 in 10.0 mi NW 21.9 mph 38.0 mph N/A   Overcast
8:55 PM 28.4 °F 15.4 °F 1.4 °F 31% 29.83 in 10.0 mi WNW 19.6 mph 28.8 mph N/A   Overcast
9:15 PM 28.4 °F 15.4 °F 1.4 °F 31% 29.84 in 10.0 mi NW 19.6 mph 36.8 mph N/A   Overcast
9:35 PM 28.4 °F 16.6 °F 1.4 °F 31% 29.85 in 10.0 mi NW 16.1 mph 32.2 mph N/A   Overcast
9:55 PM 28.4 °F 13.3 °F 1.4 °F 31% 29.86 in 10.0 mi NW 27.6 mph 39.1 mph N/A   Mostly Cloudy
10:15 PM 28.4 °F 16.2 °F 1.4 °F 31% 29.88 in 10.0 mi NW 17.3 mph 35.7 mph N/A   Scattered Clouds
10:55 PM 26.6 °F 13.1 °F 1.4 °F 34% 29.91 in 10.0 mi NW 19.6 mph 40.3 mph N/A   Scattered Clouds
11:15 PM 26.6 °F 10.8 °F -0.4 °F 31% 29.92 in 10.0 mi NW 27.6 mph 42.6 mph N/A   Partly Cloudy
11:35 PM 26.6 °F 12.7 °F -0.4 °F 31% 29.94 in 10.0 mi NW 20.7 mph 35.7 mph N/A   Partly Cloudy
11:55 PM 24.8 °F 10.7 °F -0.4 °F 34% 29.96 in 10.0 mi NW 19.6 mph 29.9 mph N/A   Scattered Clouds